Home > Weather > Horsham > Past weeks

Flag for United Kingdom Past Weather in Horsham, England, United Kingdom — Yesterday and Last 2 Weeks

Now
81 °F

Partly sunny.


Feels Like: 83 °F
Forecast: 59 / 70 °F
Wind: 8 mph from North

Location: London / Gatwick Airport

Current Time: Aug 27, 2016 at 4:35:42 PM

Latest Report: Aug 27, 2016 at 3:50 PM


Visibility: N/A

Pressure: 29.89 "Hg

Humidity: 66%

Dew Point: 68 °F

Location of HorshamLocation

Past Weather in Horsham — Graph

°F

Horsham Temperature Yesterday

Maximum temperature yesterday: 79 °F (at 2:20 PM)
Minimum temperature yesterday: 61 °F (at 9:50 PM)
Average temperature yesterday: 70 °F

High & Low Weather Summary for the Past Weeks

 TemperatureHumidityPressure
High88 °F (Aug 24, 2:50 PM)100% (Aug 15, 1:50 AM)30.30 "Hg (Aug 15, 1:50 AM)
Low46 °F (Aug 15, 4:50 AM)39% (Aug 26, 5:20 PM)29.68 "Hg (Aug 19, 4:50 PM)
Average66 °F77%30.04 "Hg
* Reported Aug 12 3:20 PM — Aug 27 3:20 PM, Horsham, Weather by CustomWeather, © 2016

Note: Actual official high and low records may vary slightly from our data, if they occured in-between our weather recording intervals... More about our weather records

Advertising

Horsham Weather History for the Previous 24 Hours

Scroll right to see more
 ConditionsComfort  
Time TempWeatherWind HumidityBarometerVisibility
3:20 PM
Sat, Aug 27
81 °FPassing clouds.12 mph62%29.92 "HgN/A
2:50 PM79 °FPartly sunny.13 mph65%29.92 "HgN/A
2:20 PM77 °FScattered clouds.9 mph69%29.92 "HgN/A
1:50 PM79 °FPassing clouds.10 mph65%29.92 "HgN/A
12:50 PM81 °FPassing clouds.13 mph62%29.95 "HgN/A
12:20 PM79 °FPassing clouds.13 mph65%29.98 "HgN/A
11:50 AM79 °FPassing clouds.13 mph61%29.98 "HgN/A
11:20 AM77 °FSunny.13 mph61%30.01 "Hg10 mi
10:50 AM75 °FPassing clouds.14 mph65%30.01 "HgN/A
10:20 AM75 °FScattered clouds.14 mph61%30.01 "HgN/A
9:50 AM72 °FPassing clouds.12 mph69%30.04 "HgN/A
9:20 AM68 °FPassing clouds.12 mph78%30.04 "HgN/A
8:50 AM68 °FScattered clouds.10 mph78%30.04 "HgN/A
8:20 AM64 °FSunny.9 mph83%30.04 "Hg10 mi
7:50 AM63 °FSunny.8 mph88%30.04 "Hg10 mi
7:20 AM61 °FSunny.6 mph88%30.04 "Hg10 mi
6:50 AM59 °FClear.6 mph88%30.04 "Hg10 mi
6:20 AM55 °FClear.3 mph88%30.07 "Hg10 mi
5:50 AM57 °FClear.3 mph82%30.07 "Hg10 mi
5:20 AM57 °FClear.5 mph82%30.07 "Hg10 mi
4:50 AM59 °FClear.5 mph77%30.07 "Hg10 mi
4:20 AM59 °FClear.3 mph77%30.07 "Hg10 mi
3:50 AM61 °FClear.5 mph72%30.07 "Hg10 mi
3:20 AM59 °FClear.5 mph77%30.09 "Hg10 mi
2:50 AM59 °FClear.3 mph77%30.09 "Hg10 mi
2:20 AM59 °FClear.2 mph77%30.09 "Hg10 mi
1:50 AM61 °FClear.3 mph72%30.09 "Hg10 mi
1:20 AM63 °FClear.3 mph68%30.09 "Hg10 mi
12:50 AM59 °FClear.3 mph77%30.09 "Hg10 mi
12:20 AM63 °FClear.3 mph68%30.09 "Hg10 mi
11:50 PM
Fri, Aug 26
64 °FPassing clouds.5 mph64%30.09 "HgN/A
11:20 PM64 °FPassing clouds.5 mph64%30.09 "HgN/A
10:50 PM64 °FPassing clouds.5 mph64%30.09 "HgN/A
10:20 PM64 °FPassing clouds.6 mph64%30.09 "HgN/A
9:50 PM61 °FClear.3 mph77%30.09 "Hg10 mi
9:20 PM63 °FClear.2 mph77%30.09 "Hg10 mi
8:50 PM64 °FSunny.3 mph73%30.09 "Hg10 mi
8:20 PM70 °FSunny.No wind53%30.09 "Hg10 mi
7:50 PM73 °FPassing clouds.6 mph44%30.07 "HgN/A
7:20 PM75 °FSunny.7 mph41%30.07 "Hg10 mi
6:50 PM77 °FPassing clouds.7 mph42%30.07 "HgN/A
6:20 PM77 °FPassing clouds.6 mph39%30.07 "HgN/A
5:50 PM79 °FPassing clouds.6 mph39%30.07 "HgN/A
5:20 PM79 °FPassing clouds.8 mph39%30.07 "HgN/A
4:50 PM79 °FPassing clouds.7 mph42%30.07 "HgN/A
4:20 PM79 °FPassing clouds.8 mph45%30.07 "HgN/A
Weather by CustomWeather, © 2016

See weather overviewHow to use our weather pages